Regional Weather Roundup
Issued by NWS

Home | Current Version | Previous Version | Graphics & Text | Print | Product List | Glossary Off
Versions: 1 2 3 4 5 6 7 8 9 10 11 12 13 14 15 16 17 18 19 20 21 22 23 24 25 26 27 28 29 30 31 32 33 34 35 36 37 38 39 40 41 42 43 44 45 46 47 48 49 50

000
ASUS43 KMPX 300310
RWRMN
WEATHER ROUNDUP FOR MINNESOTA
NATIONAL WEATHER SERVICE TWIN CITIES/CHANHASSEN MN
1000 PM CDT TUE JUL 29 2014


NOTE: "FAIR" INDICATES FEW OR NO CLOUDS BELOW 12,000 FEET WITH NO
SIGNIFICANT WEATHER AND/OR OBSTRUCTIONS TO VISIBILITY. N/A MEANS
CURRENT SKY AND/OR WEATHER CONDITIONS ARE NOT AVAILABLE.

MNZ060>063-068>070-300400-
   Twin Cities Metro

CITY           SKY/WX    TMP DP  RH WIND       PRES   REMARKS
TWIN CITIES    PTCLDY    72  54  53 NW6       30.06R
ST PAUL        MOCLDY    66  61  84 CALM      30.06R
CRYSTAL        CLEAR     71  54  54 NW7       30.05R
BLAINE         CLEAR     68  57  68 NW5       30.06R
LAKEVILLE      PTCLDY    64  57  77 W5        30.07R
EDEN PRAIRIE   CLEAR     69  56  62 NW5       30.06R
SOUTH ST PAUL  MOCLDY    68  58  70 CALM      30.06R
LAKE ELMO      CLOUDY    66  59  77 NW3       30.07R
$$
MNZ001>005-007-008-013>017-022>024-027-028-300400-
   Northwest Minnesota

CITY           SKY/WX    TMP DP  RH WIND       PRES   REMARKS
BEMIDJI        PTCLDY    64  55  74 W6        30.09R
HALLOCK        CLEAR     66  57  72 N6        30.09R
ROSEAU         CLEAR     64  55  72 W5        30.08S
WARROAD        CLEAR     66  54  63 W6        30.08R
THIEF RVR FALL CLEAR     64  57  77 NW5       30.10R
CROOKSTON      CLEAR     66  59  77 CALM      30.11R
FOSSTON        CLEAR     59  52  77 CALM      30.11R
DETROIT LAKES  CLEAR     64  55  72 N3        30.12S
MOORHEAD       CLEAR     64  59  82 CALM      30.10S
PARK RAPIDS    CLEAR     61  56  83 NW5       30.10R
$$
MNZ006-009>011-018-025>026-300400-
   North Central Minnesota

CITY           SKY/WX    TMP DP  RH WIND       PRES   REMARKS
BAUDETTE       CLEAR     67  54  63 NW6       30.07R
FLAG ISLAND    CLEAR     72  57  60 NW12      30.05R
INTL FALLS     PTCLDY    60  58  92 CALM      30.05R
WASKISH        CLEAR     68  57  68 CALM      30.06S
BIG FORK       PTCLDY    57  55  94 NE7       30.08R
LONGVILLE      CLEAR     61  57  88 CALM      30.07S
GRAND RAPIDS   CLOUDY    61  57  88 CALM      30.06F
CRANE LAKE     FOG       55  54  94 CALM      30.07R VSB 1
ORR            LGT RAIN  57  54  88 CALM      30.04R
COOK           PTCLDY    57  55  94 CALM      30.07R
$$
MNZ012-019>021-037-300400-
   Northeast Minnesota

CITY           SKY/WX    TMP DP  RH WIND       PRES   REMARKS
DULUTH         MOCLDY    58  54  86 NW7       30.06R
ELY              N/A     54  54 100 CALM      30.06R FOG
HIBBING        PTCLDY    62  54  74 E3        30.06R
EVELETH        PTCLDY    57  55  94 CALM      30.07S FOG
DULUTH HARBOR  MOCLDY    57  55  94 CALM      30.05S
TWO HARBORS    MOCLDY    57  52  82 CALM      30.02S
SILVER BAY     MOCLDY    52  52 100 CALM      30.02R FOG
GRAND MARAIS     N/A     50  49  96 CALM      30.02R
G MARAIS ARPRT CLEAR     54  50  87 N6        30.06R
$$
MNZ029>031-032-039>041-046>048-054>057-064-300400-
   West Central Minnesota

CITY           SKY/WX    TMP DP  RH WIND       PRES   REMARKS
FERGUS FALLS   CLEAR     64  52  63 CALM      30.10R
WHEATON        CLEAR     63  57  82 CALM      30.12R
MORRIS         CLEAR     63  57  82 NW3       30.10R
ALEXANDRIA     CLEAR     66  54  65 NW5       30.12R
ELBOW LAKE     FAIR      64  56  75 N6        30.10R
WADENA         CLEAR     61  55  82 CALM      30.10R
GLENWOOD       CLEAR     63  55  77 NW3       30.11R
APPLETON       PTCLDY    63  57  82 W3        30.10R
BENSON         CLEAR     63  55  77 CALM      30.10R
ORTONVILLE     CLEAR     66  55  68 CALM      30.10S
MADISON        CLEAR     66  59  77 CALM      30.11R
WILLMAR        FAIR      64  54  68 CALM      30.11R
$$
MNZ033>034-036-042>043-049>051-058-059-300400-
   Central Minnesota

CITY           SKY/WX    TMP DP  RH WIND       PRES   REMARKS
ST CLOUD       CLEAR     66  54  65 NW5       30.07R
SAUK CENTRE    FAIR      64  54  69 NW5       30.10R
PAYNESVILLE    CLEAR     58  54  87 CALM      30.10R
AITKIN         CLEAR     61  55  82 CALM      30.06R
PINE RIVER     CLEAR     63  57  82 CALM      30.11R
BRAINERD       CLEAR     65  56  72 CALM      30.08R
STAPLES        CLEAR     61  55  82 W3        30.10R
LONG PRAIRIE   FAIR      63  54  72 CALM      30.10R
LITTLE FALLS   CLEAR     64  52  63 CALM      30.09R
LITCHFIELD     CLEAR     70  55  60 NW3       30.10R
BUFFALO        CLEAR     68  53  59 NW3       30.08R
MAPLE LAKE     CLEAR     67  56  67 NW3       30.08R
$$
MNZ037-044-045-052-053-300400-
   East Central Minnesota

CITY           SKY/WX    TMP DP  RH WIND       PRES   REMARKS
PRINCETON      CLEAR     64  55  72 W3        30.07R
MORA           PTCLDY    61  55  82 CALM      30.08R
CAMBRIDGE      CLEAR     66  55  68 CALM      30.05R
RUSH CITY      MOCLDY    61  56  84 CALM      30.06S
MOOSE LAKE     MOCLDY    59  55  88 SE5       30.05S
HINCKLEY       CLOUDY    66  55  68 N15G21    30.08R
CLOQUET        MOCLDY    57  55  94 CALM      30.07R
MCGREGOR       PTCLDY    61  55  82 CALM      30.06S
$$
MNZ071>073-080-081-089-090-097-098-300400-
   Southwest Minnesota

CITY           SKY/WX    TMP DP  RH WIND       PRES   REMARKS
MONTEVIDEO     CLEAR     66  55  68 NW3       30.11R
GRANITE FALLS  CLEAR     61  57  86 W5        30.11S
CANBY          CLEAR     63  57  81 W5        30.13R
MARSHALL       CLEAR     61  54  77 NW5       30.10S
REDWOOD FALLS  CLEAR     65  55  70 W5        30.09R
OLIVIA         CLEAR     63  54  72 CALM      30.09R
PIPESTONE      CLEAR     66  55  68 CALM      30.13S
WINDOM         CLEAR     61  55  82 W3        30.12R
WORTHINGTON    CLEAR     61  55  82 CALM      30.14R
JACKSON        CLEAR     59  55  88 CALM      30.13R
TRACY          CLEAR     64  55  72 NW3       30.12R
SLAYTON        CLEAR     63  58  83 CALM      30.14R
$$
MNZ065>067-074>077-082>085-091>093-300400-
   South Central Minnesota

CITY           SKY/WX    TMP DP  RH WIND       PRES   REMARKS
MANKATO        CLEAR     66  54  63 NW6       30.08R
NEW ULM        CLEAR     63  57  82 NW5       30.09R
ST JAMES       CLEAR     63  55  77 W5        30.11R
FAIRMONT       CLEAR     64  50  59 NW5       30.10R
GLENCOE        CLEAR     67  55  64 W3        30.08R
FARIBAULT      CLEAR     66  55  68 W5        30.08R
OWATONNA       CLEAR     61  55  82 W5        30.08R
WASECA         CLEAR     59  52  77 W5        30.10R
ALBERT LEA     CLEAR     64  55  72 CALM      30.09R
$$
MNZ078>079-086>088-094>096-300400-
   Southeast Minnesota

CITY           SKY/WX    TMP DP  RH WIND       PRES   REMARKS
ROCHESTER      CLOUDY    67  57  70 N8        30.09R
RED WING       CLOUDY    63  61  94 CALM      30.04R
STANTON        CLOUDY    66  59  78 CALM      30.05R
DODGE CENTER   CLOUDY    66  57  72 NE12      30.09R
WINONA         MOCLDY    70  57  64 CALM      30.06R
AUSTIN         CLEAR     66  55  68 CALM      30.08R
PRESTON        CLOUDY    65  60  85 N6G16     30.08R
$$
ABBREVIATIONS USED IN REMARKS
   TC - TEMPERATURES IN CELSIUS
  WCI - WIND CHILL INDEX
   HX - HEAT INDEX
  VSB - VISIBILITY
$$



USA.gov is the U.S. government's official web portal to all federal, state and local government web resources and services.